Precipitable_Water
1.59 1.56 1.52 1.49 1.38 1.35 1.36 1.40 1.42 1.48 1.51 1.54 1.53 1.54 1.58 1.57 1.60 1.63 1.66 1.68 1.56 1.49 1.53 1.50 1.48 1.49 1.46 1.42 1.36 1.36 1.34 1.40 1.44 1.46 1.50 1.58 1.63 1.58 1.55 1.59 1.58 1.61 1.58 1.48 1.53 1.58 1.66 1.76 1.70 1.69 1.70 1.63 1.59 1.66 1.69 1.66 1.61 1.62 1.65 1.65 1.67 1.75 1.69
1.55 1.58 1.59 1.58 1.49 1.39 1.37 1.41 1.42 1.46 1.53 1.56 1.52 1.54 1.57 1.59 1.63 1.62 1.63 1.67 1.58 1.50 1.54 1.53 1.47 1.47 1.47 1.45 1.40 1.38 1.30 1.36 1.44 1.47 1.47 1.51 1.57 1.60 1.59 1.59 1.57 1.60 1.61 1.57 1.58 1.61 1.67 1.74 1.71 1.72 1.73 1.73 1.66 1.68 1.68 1.65 1.57 1.54 1.54 1.55 1.53 1.57 1.60
1.49 1.57 1.62 1.61 1.58 1.49 1.43 1.42 1.43 1.44 1.46 1.50 1.50 1.50 1.50 1.54 1.60 1.61 1.63 1.67 1.62 1.53 1.56 1.57 1.50 1.49 1.47 1.45 1.42 1.40 1.34 1.38 1.41 1.44 1.39 1.42 1.49 1.55 1.61 1.61 1.61 1.62 1.65 1.74 1.76 1.71 1.74 1.72 1.70 1.71 1.74 1.78 1.78 1.72 1.69 1.64 1.58 1.55 1.56 1.59 1.58 1.54 1.48
1.43 1.51 1.59 1.62 1.62 1.67 1.57 1.49 1.47 1.47 1.46 1.47 1.47 1.48 1.51 1.51 1.58 1.62 1.64 1.65 1.61 1.55 1.48 1.53 1.53 1.52 1.49 1.43 1.37 1.38 1.35 1.39 1.42 1.45 1.42 1.45 1.52 1.60 1.63 1.65 1.65 1.67 1.71 1.72 1.75 1.79 1.78 1.74 1.71 1.69 1.70 1.70 1.72 1.72 1.73 1.68 1.65 1.60 1.59 1.60 1.59 1.55 1.53
1.45 1.53 1.55 1.56 1.60 1.64 1.65 1.58 1.57 1.57 1.54 1.55 1.52 1.53 1.57 1.58 1.59 1.65 1.67 1.66 1.63 1.56 1.52 1.51 1.53 1.54 1.55 1.51 1.42 1.39 1.37 1.39 1.43 1.49 1.50 1.52 1.56 1.57 1.57 1.62 1.65 1.64 1.69 1.70 1.70 1.69 1.73 1.74 1.76 1.76 1.74 1.71 1.70 1.69 1.70 1.72 1.70 1.70 1.62 1.60 1.55 1.57 1.57
1.45 1.49 1.51 1.54 1.60 1.62 1.66 1.66 1.64 1.64 1.62 1.59 1.56 1.57 1.60 1.60 1.63 1.63 1.67 1.67 1.65 1.63 1.58 1.55 1.51 1.51 1.50 1.52 1.49 1.42 1.39 1.40 1.43 1.48 1.51 1.57 1.55 1.56 1.56 1.63 1.67 1.66 1.64 1.67 1.74 1.72 1.76 1.78 1.81 1.82 1.79 1.76 1.72 1.69 1.69 1.69 1.70 1.71 1.69 1.66 1.60 1.60 1.59
1.47 1.48 1.50 1.56 1.63 1.65 1.67 1.66 1.66 1.68 1.69 1.67 1.66 1.67 1.68 1.63 1.60 1.63 1.67 1.66 1.65 1.57 1.54 1.51 1.51 1.50 1.51 1.53 1.52 1.48 1.37 1.35 1.39 1.43 1.47 1.54 1.60 1.64 1.62 1.66 1.72 1.73 1.69 1.69 1.66 1.71 1.72 1.74 1.78 1.78 1.78 1.77 1.75 1.69 1.66 1.72 1.73 1.74 1.71 1.68 1.65 1.64 1.63
1.50 1.49 1.51 1.54 1.64 1.71 1.73 1.72 1.73 1.74 1.75 1.75 1.70 1.70 1.70 1.69 1.64 1.63 1.65 1.67 1.66 1.64 1.58 1.54 1.52 1.52 1.52 1.53 1.56 1.53 1.47 1.42 1.39 1.44 1.45 1.49 1.55 1.60 1.64 1.65 1.73 1.78 1.79 1.71 1.70 1.71 1.74 1.75 1.77 1.76 1.75 1.75 1.76 1.73 1.71 1.75 1.81 1.82 1.77 1.73 1.70 1.67 1.65
1.52 1.56 1.56 1.58 1.64 1.73 1.80 1.83 1.82 1.82 1.86 1.76 1.74 1.73 1.74 1.74 1.67 1.62 1.66 1.71 1.70 1.66 1.61 1.58 1.54 1.56 1.54 1.53 1.54 1.56 1.56 1.54 1.48 1.43 1.43 1.46 1.52 1.52 1.56 1.61 1.69 1.82 1.80 1.73 1.72 1.77 1.77 1.77 1.80 1.80 1.76 1.74 1.74 1.73 1.74 1.76 1.80 1.82 1.74 1.73 1.76 1.73 1.70
1.56 1.59 1.66 1.72 1.69 1.73 1.83 1.83 1.85 1.81 1.87 1.85 1.79 1.79 1.79 1.79 1.75 1.70 1.69 1.71 1.71 1.68 1.67 1.62 1.59 1.57 1.53 1.53 1.53 1.56 1.57 1.57 1.57 1.51 1.45 1.42 1.49 1.48 1.50 1.56 1.61 1.72 1.74 1.71 1.69 1.71 1.76 1.75 1.75 1.77 1.75 1.76 1.77 1.75 1.74 1.75 1.77 1.79 1.75 1.70 1.71 1.74 1.74
1.53 1.61 1.63 1.64 1.69 1.74 1.74 1.75 1.74 1.78 1.76 1.86 1.85 1.87 1.86 1.82 1.81 1.75 1.69 1.72 1.73 1.74 1.74 1.66 1.66 1.63 1.58 1.56 1.55 1.57 1.56 1.55 1.58 1.56 1.52 1.50 1.50 1.48 1.49 1.51 1.54 1.61 1.65 1.68 1.64 1.65 1.66 1.69 1.75 1.80 1.78 1.73 1.76 1.79 1.79 1.76 1.72 1.71 1.72 1.70 1.69 1.71 1.74
1.46 1.54 1.59 1.63 1.72 1.76 1.75 1.79 1.82 1.81 1.81 1.87 1.87 1.85 1.88 1.89 1.86 1.83 1.77 1.77 1.83 1.81 1.76 1.69 1.73 1.70 1.66 1.62 1.60 1.56 1.52 1.52 1.57 1.58 1.58 1.59 1.58 1.55 1.54 1.53 1.56 1.59 1.64 1.69 1.68 1.69 1.69 1.70 1.74 1.78 1.79 1.78 1.75 1.74 1.79 1.82 1.75 1.69 1.68 1.70 1.70 1.68 1.70
1.57 1.63 1.66 1.67 1.65 1.67 1.73 1.82 1.79 1.85 1.86 1.86 1.89 1.85 1.85 1.90 1.91 1.90 1.85 1.81 1.86 1.88 1.82 1.76 1.77 1.77 1.71 1.68 1.65 1.61 1.54 1.55 1.56 1.58 1.60 1.63 1.63 1.61 1.59 1.57 1.55 1.59 1.60 1.69 1.71 1.71 1.72 1.76 1.76 1.82 1.83 1.81 1.79 1.76 1.78 1.81 1.80 1.75 1.72 1.73 1.70 1.64 1.61
1.59 1.61 1.61 1.65 1.67 1.67 1.73 1.77 1.84 1.82 1.85 1.86 1.88 1.90 1.87 1.93 1.98 1.96 1.94 1.90 1.90 1.90 1.89 1.85 1.81 1.85 1.83 1.76 1.70 1.65 1.60 1.61 1.65 1.67 1.69 1.69 1.67 1.68 1.66 1.63 1.61 1.59 1.65 1.67 1.67 1.69 1.73 1.75 1.76 1.82 1.87 1.87 1.85 1.84 1.84 1.84 1.81 1.78 1.77 1.78 1.75 1.68 1.61
1.56 1.54 1.54 1.57 1.61 1.65 1.71 1.77 1.82 1.96 1.93 1.92 1.90 1.89 1.88 1.91 1.91 1.92 2.01 2.05 2.04 2.01 1.97 1.98 1.90 1.89 1.92 1.91 1.83 1.76 1.70 1.68 1.71 1.75 1.81 1.82 1.76 1.72 1.71 1.72 1.73 1.71 1.69 1.71 1.72 1.74 1.75 1.77 1.75 1.74 1.77 1.87 1.94 1.92 1.90 1.88 1.86 1.84 1.82 1.78 1.76 1.76 1.69
1.49 1.56 1.53 1.48 1.48 1.56 1.67 1.76 1.80 1.88 1.99 2.00 1.93 1.88 1.83 1.87 1.94 1.96 1.94 1.99 2.06 2.07 2.08 2.04 1.98 1.95 1.93 1.92 1.97 2.00 1.94 1.94 1.89 1.82 1.86 1.89 1.88 1.81 1.74 1.76 1.80 1.77 1.70 1.70 1.78 1.80 1.81 1.80 1.77 1.73 1.71 1.76 1.90 1.99 2.01 2.01 2.01 2.04 2.01 1.94 1.88 1.83 1.77
1.37 1.49 1.56 1.57 1.59 1.60 1.68 1.76 1.79 1.85 1.87 1.91 1.94 1.98 2.00 2.00 2.04 2.08 2.02 2.03 2.04 2.00 2.01 2.00 1.98 2.01 2.01 2.00 2.03 1.97 2.04 2.10 2.04 1.89 1.75 1.85 1.89 1.80 1.73 1.74 1.76 1.73 1.70 1.67 1.74 1.85 1.85 1.81 1.82 1.79 1.76 1.76 1.83 1.92 1.97 1.94 1.91 1.84 1.96 2.04 1.97 1.89 1.81
1.41 1.45 1.53 1.65 1.63 1.65 1.67 1.72 1.76 1.74 1.78 1.83 1.91 1.94 1.97 1.98 2.03 2.09 2.07 2.06 2.06 2.05 2.04 1.95 1.90 1.85 1.86 1.93 1.95 1.93 1.90 1.97 1.98 1.91 1.79 1.75 1.81 1.75 1.70 1.73 1.75 1.76 1.73 1.70 1.67 1.70 1.74 1.73 1.77 1.79 1.80 1.81 1.84 1.91 1.98 1.95 1.95 1.95 1.98 1.97 1.96 1.92 1.90
1.41 1.44 1.50 1.61 1.66 1.66 1.67 1.72 1.72 1.78 1.82 1.82 1.83 1.87 1.94 2.00 1.98 1.98 1.98 1.95 2.02 2.03 1.98 1.96 1.94 1.90 1.87 1.85 1.90 1.90 1.88 1.93 1.96 1.96 1.87 1.79 1.85 1.86 1.78 1.76 1.75 1.76 1.80 1.80 1.81 1.77 1.70 1.72 1.74 1.75 1.81 1.83 1.86 1.93 2.01 2.02 2.06 2.08 2.04 2.01 1.99 1.97 1.95
1.37 1.42 1.51 1.55 1.65 1.64 1.62 1.70 1.75 1.80 1.88 1.85 1.88 1.92 1.93 1.96 1.99 2.06 2.10 2.08 2.06 1.97 1.90 1.90 1.93 1.94 1.94 1.94 2.00 2.08 2.11 2.12 2.10 2.03 1.98 1.92 1.90 1.94 1.91 1.85 1.82 1.83 1.85 1.89 1.92 1.89 1.83 1.78 1.74 1.78 1.87 1.94 1.96 1.96 1.93 1.89 1.99 2.05 2.01 1.99 1.99 1.98 1.95
1.42 1.40 1.46 1.50 1.52 1.62 1.69 1.72 1.77 1.82 1.81 1.81 1.85 1.89 1.93 1.96 1.99 2.01 1.99 1.98 1.95 1.97 1.99 1.97 1.90 1.89 1.93 1.97 2.00 2.04 2.07 2.07 2.01 1.98 2.01 2.03 2.03 2.04 2.03 1.99 1.97 1.97 1.99 1.98 1.97 1.95 1.93 1.92 1.89 1.85 1.85 1.92 1.98 2.02 1.98 1.93 1.96 1.95 1.89 1.88 1.91 1.95 1.96
1.39 1.45 1.44 1.46 1.50 1.58 1.61 1.66 1.71 1.74 1.76 1.83 1.84 1.89 1.89 1.90 1.93 1.90 1.88 1.92 1.91 1.92 1.93 1.97 1.98 1.94 1.92 1.92 1.96 1.97 1.97 1.95 1.94 1.95 1.98 1.99 2.01 2.02 2.04 2.07 2.09 2.08 2.10 2.06 2.05 2.07 2.08 2.07 2.07 2.07 2.06 2.03 1.99 1.99 1.98 1.96 1.99 2.02 1.97 1.85 1.77 1.81 1.88
1.36 1.35 1.41 1.49 1.52 1.53 1.60 1.65 1.68 1.70 1.71 1.74 1.78 1.79 1.79 1.80 1.79 1.77 1.78 1.80 1.81 1.82 1.83 1.87 1.88 1.88 1.92 1.95 2.00 2.02 2.00 1.98 1.97 1.98 1.99 2.02 2.02 2.01 2.02 2.04 2.06 2.11 2.14 2.08 2.12 2.10 2.10 2.11 2.10 2.10 2.09 2.09 2.11 2.09 2.08 2.06 2.06 2.06 2.05 1.98 1.86 1.80 1.83
1.37 1.35 1.32 1.31 1.38 1.44 1.54 1.57 1.54 1.59 1.65 1.65 1.66 1.70 1.71 1.70 1.68 1.65 1.64 1.64 1.66 1.68 1.73 1.76 1.80 1.89 1.97 1.96 1.99 1.98 2.01 2.04 2.03 2.00 2.00 2.03 2.04 2.05 2.09 2.13 2.15 2.12 2.14 2.08 2.07 2.09 2.13 2.19 2.18 2.19 2.17 2.14 2.12 2.13 2.10 2.10 2.12 2.09 2.05 2.01 1.94 1.87 1.86
1.30 1.30 1.27 1.27 1.27 1.28 1.34 1.47 1.52 1.55 1.62 1.61 1.53 1.53 1.58 1.59 1.54 1.50 1.49 1.52 1.55 1.59 1.58 1.62 1.70 1.78 1.83 1.89 1.97 1.98 1.96 1.99 2.01 2.03 2.04 2.05 2.06 2.08 2.08 2.09 2.11 2.15 2.18 2.17 2.18 2.16 2.19 2.20 2.18 2.18 2.19 2.20 2.18 2.18 2.14 2.14 2.16 2.16 2.10 2.06 2.01 1.97 1.96
1.29 1.30 1.28 1.25 1.25 1.27 1.29 1.32 1.32 1.37 1.42 1.47 1.54 1.61 1.62 1.60 1.56 1.54 1.55 1.58 1.61 1.60 1.59 1.63 1.68 1.74 1.78 1.81 1.84 1.88 1.92 1.93 1.97 1.94 1.95 1.98 1.99 2.02 2.04 2.06 2.09 2.12 2.12 2.12 2.13 2.11 2.12 2.13 2.12 2.08 2.10 2.16 2.19 2.19 2.17 2.13 2.14 2.16 2.15 2.13 2.12 2.11 2.06
1.23 1.23 1.21 1.19 1.19 1.20 1.20 1.23 1.25 1.25 1.27 1.32 1.39 1.43 1.48 1.50 1.47 1.44 1.42 1.45 1.49 1.52 1.58 1.61 1.62 1.63 1.67 1.71 1.72 1.73 1.76 1.82 1.87 1.89 1.94 1.97 1.95 1.95 1.97 2.06 2.09 2.10 2.07 2.04 2.07 2.09 2.08 2.07 2.09 2.08 2.09 2.14 2.16 2.13 2.12 2.13 2.10 2.14 2.20 2.20 2.18 2.17 2.10
1.13 1.14 1.19 1.22 1.22 1.19 1.16 1.16 1.16 1.19 1.22 1.28 1.31 1.32 1.32 1.34 1.37 1.40 1.41 1.37 1.32 1.33 1.42 1.46 1.48 1.50 1.51 1.54 1.57 1.61 1.65 1.71 1.76 1.77 1.85 1.90 1.92 1.86 1.90 1.97 2.03 2.04 2.00 1.99 1.96 1.94 1.94 1.97 2.00 1.99 2.01 2.07 2.08 2.09 2.13 2.13 2.13 2.08 2.17 2.20 2.26 2.18 2.14
1.10 1.08 1.08 1.10 1.15 1.18 1.15 1.09 1.04 1.00 1.02 1.09 1.16 1.24 1.27 1.25 1.20 1.18 1.22 1.26 1.35 1.38 1.29 1.27 1.31 1.31 1.36 1.40 1.45 1.51 1.56 1.60 1.64 1.67 1.72 1.75 1.83 1.86 1.85 1.93 1.94 1.95 1.96 1.95 1.93 1.89 1.84 1.83 1.84 1.83 1.84 1.86 1.87 1.88 1.90 1.99 2.07 2.10 2.11 2.18 2.22 2.17 2.14
1.07 1.06 1.04 1.03 1.02 1.02 1.01 0.98 0.97 0.96 0.94 0.91 0.94 1.01 1.04 1.01 0.94 0.93 0.94 1.01 1.16 1.21 1.28 1.33 1.22 1.12 1.10 1.13 1.20 1.34 1.43 1.50 1.56 1.60 1.67 1.67 1.68 1.72 1.77 1.83 1.91 1.95 1.96 1.94 1.86 1.77 1.71 1.71 1.74 1.73 1.69 1.65 1.65 1.74 1.87 2.01 2.06 2.07 2.07 2.04 2.01 2.00 2.00
0.94 0.92 0.90 0.90 0.91 0.95 0.95 0.93 0.92 0.93 0.93 0.94 0.92 0.90 0.91 0.94 0.94 0.92 0.91 0.99 1.07 1.07 1.08 1.10 1.15 1.16 1.12 1.12 1.14 1.19 1.24 1.30 1.41 1.48 1.54 1.58 1.63 1.61 1.65 1.67 1.71 1.70 1.72 1.74 1.78 1.75 1.66 1.63 1.64 1.59 1.57 1.55 1.53 1.61 1.74 1.90 2.00 1.99 1.97 1.95 1.90 1.87 1.87
0.85 0.86 0.87 0.88 0.89 0.92 0.92 0.94 0.94 0.93 0.92 0.93 0.94 0.89 0.84 0.81 0.77 0.73 0.80 0.95 1.03 1.07 1.06 1.05 1.07 1.07 1.08 1.08 1.06 1.07 1.09 1.14 1.18 1.29 1.37 1.48 1.56 1.60 1.65 1.63 1.61 1.59 1.59 1.58 1.58 1.63 1.66 1.62 1.60 1.55 1.53 1.52 1.55 1.56 1.61 1.69 1.72 1.75 1.75 1.80 1.80 1.79 1.79
0.83 0.84 0.86 0.89 0.93 0.95 0.93 0.92 0.92 0.93 0.92 0.91 0.94 0.94 0.92 0.87 0.81 0.81 0.84 0.86 0.87 0.95 1.04 1.06 1.04 1.03 1.02 1.03 1.05 1.11 1.15 1.14 1.13 1.10 1.10 1.20 1.35 1.45 1.49 1.56 1.57 1.53 1.52 1.51 1.49 1.51 1.56 1.62 1.60 1.58 1.58 1.58 1.56 1.52 1.50 1.51 1.56 1.55 1.56 1.57 1.56 1.57 1.58
0.83 0.86 0.92 0.95 0.96 0.96 0.95 0.89 0.85 0.86 0.87 0.87 0.90 0.90 0.89 0.90 0.88 0.84 0.82 0.83 0.88 0.89 0.83 0.84 0.96 1.00 0.99 1.02 1.07 1.09 1.12 1.14 1.15 1.17 1.15 1.13 1.16 1.21 1.19 1.27 1.32 1.34 1.36 1.43 1.48 1.55 1.56 1.57 1.55 1.54 1.54 1.55 1.55 1.51 1.47 1.47 1.50 1.53 1.53 1.52 1.51 1.51 1.51
0.85 0.87 0.89 0.91 0.94 0.94 0.92 0.89 0.84 0.83 0.85 0.86 0.90 0.92 0.92 0.91 0.92 0.94 0.92 0.91 0.88 0.83 0.88 0.90 0.89 0.93 0.96 1.00 1.01 1.09 1.15 1.15 1.14 1.14 1.13 1.15 1.18 1.12 1.09 1.09 1.08 1.16 1.31 1.39 1.39 1.42 1.45 1.49 1.49 1.49 1.52 1.51 1.46 1.43 1.41 1.43 1.44 1.49 1.55 1.54 1.53 1.50 1.46
0.85 0.87 0.88 0.94 0.94 0.95 0.95 0.94 0.91 0.87 0.85 0.87 0.92 0.93 0.90 0.88 0.92 0.94 0.96 0.97 0.98 0.95 0.90 0.89 0.87 0.83 0.87 0.94 1.00 1.07 1.06 1.10 1.14 1.19 1.16 1.10 1.07 1.06 1.02 1.07 1.11 1.06 1.03 1.14 1.27 1.31 1.34 1.40 1.41 1.44 1.42 1.34 1.33 1.32 1.30 1.33 1.37 1.40 1.38 1.37 1.35 1.32 1.27
0.87 0.86 0.86 0.92 0.92 0.95 0.95 0.94 0.94 0.94 0.90 0.86 0.82 0.81 0.85 0.87 0.91 0.94 0.98 1.01 1.04 1.03 1.01 1.02 0.99 0.91 0.77 0.85 0.97 1.02 1.03 1.09 1.10 1.16 1.19 1.15 1.09 1.05 0.99 1.00 1.10 1.11 1.04 1.01 1.04 1.08 1.19 1.27 1.34 1.35 1.33 1.28 1.19 1.16 1.12 1.10 1.12 1.12 1.11 1.08 1.03 0.94 0.87
0.92 0.93 0.95 0.96 0.95 0.94 0.92 0.89 0.88 0.89 0.89 0.89 0.87 0.83 0.80 0.77 0.79 0.81 0.83 0.94 1.00 1.05 1.05 1.03 0.98 0.94 0.90 0.86 0.86 0.93 0.97 0.95 1.01 1.13 1.17 1.08 1.08 1.05 1.02 1.03 1.04 1.06 1.11 1.10 1.06 1.07 1.07 1.10 1.16 1.17 1.15 1.10 1.02 0.92 0.87 0.85 0.84 0.83 0.80 0.77 0.74 0.72 0.71
Wind_Speed
23 24 22 22 22 22 22 21 22 21 20 20 20 20 19 18 18 17 17 16 16 16 15 15 15 15 14 14 14 13 13 12 11 11 11 11 10 10 10 9 9 8 8 8 7 7 7 7 6 6 6 6 6 5 5 5 4 4 4 4 4 4 3
22 23 24 23 22 22 23 22 22 22 21 21 20 20 20 19 19 18 18 17 16 16 16 16 16 15 15 15 14 14 14 13 12 11 11 11 10 10 10 9 9 8 8 8 7 7 7 7 7 6 6 6 6 6 5 5 5 4 4 4 4 4 4
22 22 23 24 23 22 23 23 23 23 23 22 22 21 21 20 20 19 19 18 17 17 17 16 16 16 15 15 15 14 14 14 13 12 12 11 11 10 10 9 9 9 9 8 8 7 7 7 7 7 7 6 6 6 5 5 5 5 4 4 4 4 4
23 23 22 23 23 22 22 24 23 23 23 23 23 22 21 21 20 20 20 19 18 17 17 17 16 16 16 16 16 15 15 15 14 13 13 12 11 11 10 10 9 9 9 9 8 8 7 7 7 7 7 6 6 6 6 6 5 5 5 5 4 4 4
22 23 23 23 23 22 21 23 24 23 23 24 24 22 21 21 21 21 20 20 19 18 18 18 17 17 16 16 16 16 16 16 15 14 14 13 12 12 11 11 10 10 10 9 9 8 8 7 7 7 7 7 6 6 6 6 6 6 6 5 5 5 4
20 22 23 23 23 22 21 22 25 25 24 24 24 23 22 22 22 21 21 20 19 19 19 18 18 18 17 17 16 16 16 16 16 15 15 14 13 13 12 12 11 11 10 10 9 9 8 8 8 7 7 7 7 6 6 6 6 6 6 6 5 5 5
18 20 22 22 22 22 21 22 25 26 25 24 24 23 23 23 22 22 21 20 20 20 20 19 19 18 18 18 17 17 17 17 17 16 16 15 14 14 13 13 12 12 11 11 10 10 9 9 8 8 8 8 8 7 7 7 7 6 6 6 6 6 5
18 19 21 22 23 22 21 21 23 24 25 25 24 23 23 23 23 22 21 21 21 20 20 20 19 19 18 18 18 17 17 17 17 17 17 16 15 15 14 13 13 12 12 12 11 11 10 10 9 9 9 9 8 8 8 7 7 7 7 7 7 6 6
17 18 19 20 21 22 22 21 21 22 23 24 24 24 24 24 23 23 22 21 21 21 20 20 19 19 19 18 18 18 17 17 17 18 18 17 16 16 15 14 14 14 13 12 12 12 11 11 10 10 10 10 9 9 9 8 8 8 8 7 7 7 7
14 16 17 18 19 21 22 22 22 23 23 23 23 23 24 24 23 23 23 22 21 21 21 20 19 19 19 19 18 18 18 17 17 18 18 18 17 17 16 15 15 15 14 14 13 13 12 12 12 11 11 11 10 10 10 9 9 9 9 8 8 8 8
14 15 16 17 18 19 22 24 24 25 25 24 23 22 23 24 24 24 23 22 22 22 21 20 20 20 20 19 19 19 18 18 18 18 18 18 18 17 17 16 16 15 15 15 14 14 13 13 13 13 12 12 11 11 11 10 10 10 10 10 9 9 9
14 15 15 16 16 17 19 22 25 26 26 25 24 23 22 23 24 24 24 23 22 22 21 20 20 20 21 20 19 19 19 18 18 18 18 18 18 18 17 17 16 16 16 15 15 14 14 14 14 14 13 13 13 13 12 12 12 11 11 11 10 10 10
14 14 15 16 16 16 17 19 24 26 26 26 25 24 23 22 24 25 24 23 23 22 21 20 19 19 20 20 20 19 19 18 18 18 18 18 18 17 17 17 17 17 17 17 16 15 15 14 14 14 14 14 14 14 14 13 13 13 12 12 12 11 11
14 14 15 15 15 16 16 17 21 25 26 26 26 24 23 23 23 23 24 23 24 23 21 20 20 19 19 20 20 20 19 19 18 18 18 18 18 18 17 17 17 18 18 18 17 16 16 15 15 15 15 15 15 15 15 15 14 14 14 13 13 13 13
13 14 15 15 15 15 16 16 19 22 25 26 26 25 24 24 24 23 23 23 23 23 22 21 21 20 19 19 20 20 19 19 19 18 17 17 17 17 17 17 16 16 17 17 17 17 17 17 16 16 15 16 15 15 16 16 15 15 15 15 14 14 14
13 13 14 14 15 16 16 15 16 19 22 23 23 24 24 24 24 24 23 23 22 22 22 21 21 21 21 20 20 21 20 18 19 18 18 17 17 17 17 17 16 16 16 16 16 17 17 17 16 16 16 16 16 16 16 16 15 15 15 16 15 15 15
13 13 13 13 13 15 16 15 15 16 19 20 20 21 22 22 21 21 22 21 20 20 21 21 20 21 21 22 22 23 22 20 19 19 18 18 18 18 18 18 17 17 17 17 16 16 17 16 16 16 16 16 16 16 16 16 16 16 16 16 16 16 16
12 12 11 11 11 12 13 15 14 15 16 17 18 18 19 19 19 19 20 20 20 20 20 20 21 21 21 21 23 24 25 23 22 21 21 20 20 20 19 19 19 18 18 18 18 18 18 17 17 17 17 17 17 16 16 17 17 17 16 16 16 17 17
12 11 10 9 10 10 11 12 13 14 15 16 16 16 17 17 17 17 17 18 19 20 20 20 20 20 20 20 21 23 24 24 23 23 23 23 22 22 22 21 21 20 20 20 19 19 19 19 19 18 18 18 18 18 18 18 18 17 17 17 17 17 18
11 11 10 9 10 10 10 10 11 12 13 14 15 16 16 17 17 17 17 17 17 18 19 19 18 18 19 19 20 21 21 22 23 23 24 24 24 23 23 23 23 23 23 22 21 21 20 20 20 20 19 19 19 19 19 19 18 18 19 19 18 18 19
11 11 10 9 9 9 8 9 10 10 11 12 13 14 15 16 16 16 16 16 17 17 17 18 19 18 19 20 20 21 21 21 21 22 23 24 25 25 25 25 25 25 25 24 24 24 23 22 22 21 21 21 21 21 21 20 20 20 20 20 20 20 20
11 11 9 8 8 8 8 7 8 8 9 11 11 12 12 13 14 14 13 14 15 15 14 16 17 18 19 20 20 21 21 21 20 20 21 23 25 26 26 26 26 26 27 27 27 27 26 25 25 24 23 23 23 23 23 23 22 22 22 22 21 21 21
9 10 10 8 8 8 8 8 8 8 9 9 9 10 10 10 11 11 11 11 11 12 11 12 14 15 17 19 20 20 20 20 20 20 21 21 22 24 25 26 26 27 27 28 28 28 28 28 27 27 26 26 26 25 25 25 25 25 24 24 23 22 22
9 9 9 9 9 9 9 8 8 9 9 9 9 10 11 10 9 9 9 9 10 11 11 11 11 13 14 16 17 19 19 19 19 20 20 20 20 20 22 23 24 25 26 27 28 29 29 29 29 29 29 29 29 29 28 27 27 27 26 25 24 24 23
9 9 9 9 9 10 11 10 9 9 9 9 9 10 11 12 11 10 10 11 11 12 11 11 11 12 12 13 14 15 16 17 17 18 18 18 18 19 19 20 21 21 22 24 25 26 27 28 28 29 29 30 30 31 30 29 28 28 27 25 24 24 23
10 10 11 11 10 10 11 12 12 11 9 9 9 10 11 12 12 12 13 13 13 13 13 13 13 13 13 13 13 14 14 15 15 16 16 17 17 18 18 19 19 18 19 20 20 21 22 23 24 25 25 26 27 27 27 27 26 26 26 26 25 25 24
13 12 12 12 12 12 12 12 13 13 12 12 12 12 12 12 13 13 14 15 15 15 16 16 15 15 14 14 14 14 15 15 15 15 16 16 17 17 17 18 18 17 17 17 18 18 18 19 19 19 20 20 20 21 22 23 23 23 24 25 25 26 25
14 14 13 13 12 12 12 13 13 14 14 15 15 15 14 14 14 14 14 15 16 17 17 17 17 16 16 15 15 15 15 15 16 16 16 16 17 17 17 18 18 18 17 17 17 17 17 17 17 16 16 17 17 18 19 20 21 21 21 22 23 24 24
15 15 15 15 14 13 13 13 13 13 14 15 16 17 17 17 16 16 16 16 16 17 18 18 18 17 17 16 16 16 16 16 16 16 16 16 16 17 16 16 16 17 17 17 17 16 15 15 15 15 15 15 16 17 17 17 18 17 17 17 18 18 19
14 14 14 14 14 14 14 13 13 13 14 15 16 17 18 18 18 18 18 18 18 18 18 18 18 18 18 18 18 18 18 18 17 17 18 17 17 16 15 14 14 15 16 16 17 17 16 16 16 15 14 14 14 14 14 14 14 13 13 13 13 14 15
13 13 13 13 13 13 13 13 13 13 14 15 16 17 18 18 19 19 19 20 20 20 19 19 19 19 19 19 19 19 19 19 18 18 18 18 18 17 16 15 15 15 15 16 16 17 17 16 16 15 14 13 13 12 12 13 13 13 12 12 12 13 14
13 13 14 14 14 15 15 15 15 15 15 15 16 16 17 18 18 18 19 20 20 21 21 21 20 20 20 20 20 21 21 21 20 20 19 19 18 17 16 16 16 16 16 16 17 17 17 17 16 15 15 14 13 12 12 13 14 14 13 14 13 14 14
15 15 15 15 15 16 16 16 16 16 16 16 16 16 17 17 18 18 19 19 20 20 21 21 21 21 21 21 21 21 22 22 21 21 21 20 20 18 17 17 18 17 16 16 16 16 17 17 16 16 15 15 14 14 13 13 14 14 14 14 14 14 14
16 15 15 16 16 16 16 16 16 16 16 16 16 17 17 18 18 18 18 19 20 20 20 20 21 21 22 22 22 22 21 21 21 21 21 21 21 21 20 19 19 19 18 17 16 16 17 17 16 16 16 15 15 16 15 15 15 15 15 15 15 15 15
18 17 17 17 17 17 16 16 16 16 17 17 17 18 18 19 19 19 19 19 20 20 20 21 21 21 21 22 22 22 22 21 21 21 21 21 21 22 22 21 21 21 21 20 19 19 19 18 17 17 17 17 17 17 17 17 18 17 17 17 17 17 17
18 18 19 19 18 18 17 17 17 16 17 17 18 18 19 19 20 20 20 20 20 20 20 20 21 21 21 21 21 22 22 22 21 21 21 21 21 20 20 21 20 20 21 21 21 20 20 20 19 18 18 18 18 17 17 18 18 19 18 18 18 17 18
17 18 19 19 19 19 18 18 18 17 17 17 18 18 19 19 20 20 21 21 21 20 19 19 20 20 21 21 21 21 21 22 22 22 22 22 22 21 20 20 20 20 20 21 21 20 20 20 20 19 19 19 19 19 18 18 18 19 19 19 18 18 18
16 16 17 18 18 18 18 18 18 18 18 18 18 18 19 19 20 21 21 21 21 21 20 20 20 20 20 21 21 21 20 20 21 22 22 22 22 22 22 22 22 21 20 20 20 20 19 19 19 19 19 19 19 20 20 20 20 20 20 20 20 20 20
Wind_Direction
209 212 211 208 205 204 206 205 203 202 202 201 199 199 199 196 194 195 197 197 196 195 195 195 196 197 196 195 195 196 194 192 192 191 191 192 192 190 190 192 192 191 191 191 191 190 188 186 187 189 187 185 186 186 186 186 186 186 187 187 187 186 183
209 213 214 212 208 206 207 206 204 203 204 203 202 202 201 199 197 197 198 199 198 197 196 197 198 199 199 197 197 198 197 195 195 193 193 194 195 194 195 196 195 195 195 196 196 196 195 192 193 196 195 194 194 194 195 195 196 196 195 195 197 200 202
211 213 214 211 209 210 209 208 207 206 207 206 204 204 202 201 201 199 199 200 200 199 198 199 200 200 201 200 201 201 199 198 198 197 196 196 196 198 199 199 199 198 198 197 198 198 197 199 201 202 201 201 201 201 202 203 205 204 201 203 207 209 212
211 212 211 209 210 212 212 210 208 209 209 207 205 205 203 202 203 202 201 202 202 202 201 201 202 202 202 202 203 204 203 202 202 202 201 200 200 201 201 202 203 203 202 200 200 200 199 202 206 207 206 204 205 207 208 208 209 208 207 209 215 216 217
209 210 210 210 211 213 213 211 209 209 209 208 206 206 204 203 203 202 202 203 204 204 203 203 204 204 205 204 205 206 207 207 206 205 205 205 205 205 204 205 206 206 206 205 204 204 204 205 208 210 210 208 210 211 211 212 212 212 212 213 217 218 220
209 209 210 211 211 213 214 212 209 208 209 209 207 208 206 204 204 203 203 204 205 206 205 206 206 207 207 207 207 208 209 210 209 209 208 208 209 209 208 208 210 210 210 209 209 209 209 209 209 211 212 213 215 215 214 214 215 215 216 216 218 219 222
210 210 211 212 212 214 216 214 211 209 210 209 209 210 209 206 205 204 204 204 206 207 207 207 208 208 209 209 209 210 210 211 212 211 211 210 212 213 212 212 213 214 214 213 213 214 213 213 213 215 216 216 218 218 217 217 217 217 218 218 219 221 224
211 211 212 213 214 215 216 215 213 211 211 209 210 211 210 207 205 204 204 205 206 208 208 208 208 209 210 211 211 211 212 213 213 214 213 212 213 215 216 216 216 217 217 216 217 218 217 217 218 220 220 218 219 221 221 220 219 219 220 220 221 224 227
213 213 214 213 214 216 216 216 215 214 213 210 209 210 209 207 206 206 206 207 207 208 208 208 208 208 210 211 212 212 213 214 215 216 215 214 215 218 219 219 218 218 219 219 221 222 221 221 222 223 224 222 222 222 224 224 223 222 222 223 224 227 229
219 217 217 215 216 217 217 217 217 215 216 213 210 210 209 207 207 208 208 209 208 208 209 210 209 209 210 211 212 212 213 216 216 217 217 217 218 220 221 221 221 220 221 223 225 226 225 225 226 227 227 226 225 225 226 226 227 227 227 228 229 230 232
222 220 219 219 221 221 219 218 218 216 217 215 212 210 209 208 209 209 209 210 210 209 210 212 211 211 212 212 212 212 213 216 217 218 219 219 220 221 222 223 224 224 224 226 227 228 228 228 228 230 230 230 230 230 229 230 231 231 232 233 234 233 234
220 221 223 222 224 226 224 220 217 215 215 213 212 212 211 209 209 209 210 210 210 211 211 213 215 215 214 214 213 213 214 217 218 219 219 220 221 223 224 225 225 226 226 228 229 230 230 230 230 232 233 234 234 234 234 234 235 235 236 237 238 238 238
220 224 226 225 226 227 227 223 216 214 213 211 211 212 212 211 210 211 212 212 211 212 213 214 216 218 217 216 215 215 216 218 219 220 221 222 223 224 225 226 227 227 227 228 230 231 232 233 233 234 235 236 236 237 238 237 238 238 238 239 240 241 241
222 223 225 226 225 224 225 225 220 216 215 212 210 211 212 211 211 212 213 214 213 213 215 216 217 219 219 218 218 218 219 220 221 222 224 224 224 224 226 228 229 230 229 229 230 232 233 234 234 236 237 237 237 239 239 239 239 240 240 241 242 243 243
228 223 221 222 221 221 224 225 223 219 215 212 210 210 210 211 211 212 213 215 214 214 216 218 219 221 222 222 221 220 222 223 224 225 226 226 225 225 227 230 231 232 231 230 231 233 234 235 236 237 238 239 239 239 239 238 240 241 242 242 243 245 245
237 230 225 223 220 221 221 223 225 220 215 212 211 210 211 211 212 212 213 215 216 216 217 219 222 223 224 225 225 223 224 227 227 226 226 227 227 228 230 232 233 233 232 231 233 235 235 236 237 238 239 240 240 240 240 241 243 245 245 244 244 245 246
238 237 235 230 225 223 223 224 226 221 217 216 215 213 212 213 213 213 213 215 216 217 218 221 224 227 228 230 230 227 226 229 228 227 227 229 231 232 233 234 235 236 236 234 235 236 236 236 238 239 240 241 240 241 242 245 246 246 245 246 246 246 247
230 232 235 234 229 226 223 221 222 222 219 217 217 216 215 217 218 217 215 216 218 220 222 224 227 229 232 234 233 230 228 229 229 229 230 231 233 234 235 235 236 238 238 238 237 238 238 239 239 240 242 241 241 241 243 245 246 245 245 247 248 248 248
223 222 227 231 230 225 218 214 216 220 219 216 215 216 216 218 221 221 220 220 222 225 227 229 230 231 232 233 232 231 229 229 231 233 235 234 234 235 237 237 238 239 239 239 240 241 241 241 241 242 243 243 242 243 245 246 246 245 246 249 250 249 248
226 223 226 231 233 226 217 211 212 216 216 215 215 216 218 220 223 227 226 225 227 229 229 231 232 233 233 232 233 233 231 233 236 239 240 238 236 238 239 240 240 241 241 242 242 243 243 243 243 243 243 244 243 244 246 247 247 246 248 251 252 251 249
228 227 231 235 232 223 221 220 217 216 216 215 215 216 217 219 222 227 228 229 231 232 231 232 235 236 236 235 235 235 236 238 240 241 242 241 240 240 241 242 242 243 244 244 244 245 246 246 246 245 245 245 245 246 247 248 249 249 250 252 254 253 251
228 228 233 238 229 222 227 228 218 213 213 215 215 216 217 220 222 224 226 229 232 234 235 235 236 236 237 236 236 237 238 240 242 243 245 244 244 243 243 243 244 244 245 246 246 247 247 247 248 248 247 247 247 248 249 250 251 251 251 253 254 254 253
227 226 230 234 229 226 229 228 222 216 212 213 215 215 216 218 220 221 223 225 230 235 238 237 236 237 238 237 237 237 239 242 244 246 246 245 245 245 245 244 245 246 246 247 247 248 248 248 248 249 249 250 250 251 252 252 253 253 252 253 253 253 253
226 224 227 231 232 230 227 226 228 226 222 225 227 224 221 217 216 220 224 229 233 235 237 240 241 243 243 243 242 241 242 245 245 244 243 244 245 246 246 246 247 248 249 249 249 248 248 248 249 250 251 253 253 254 254 253 253 253 253 252 252 251 251
230 227 228 228 230 232 231 231 233 232 230 233 235 231 228 226 226 228 231 234 236 235 237 242 246 248 249 250 249 247 246 247 246 244 243 245 246 247 247 247 247 248 248 249 248 248 248 248 250 252 253 254 254 254 253 251 251 251 250 249 249 249 248
230 231 232 232 232 235 236 238 241 245 248 248 245 240 235 235 238 241 242 243 242 242 245 249 252 255 255 254 254 252 250 250 250 248 247 247 248 249 249 248 248 247 247 246 246 246 247 247 249 251 253 253 252 250 248 248 249 249 248 247 246 246 245
230 234 238 240 239 239 240 242 245 249 252 253 253 251 248 247 247 249 249 249 249 250 252 254 256 257 256 255 254 254 254 254 255 254 252 251 251 251 250 250 248 247 246 246 246 245 245 246 248 249 249 249 247 246 246 246 247 248 249 247 246 246 246
233 236 239 241 242 241 241 243 247 250 252 253 252 252 252 253 253 255 256 256 256 255 255 255 256 256 255 253 252 252 254 255 257 257 255 253 252 251 250 250 249 248 247 246 245 245 245 245 246 246 246 246 247 247 248 248 248 249 248 246 246 246 244
235 237 239 242 244 244 244 244 247 249 252 253 253 252 253 253 253 255 257 259 258 257 256 256 255 254 254 253 251 251 253 254 255 255 255 255 254 252 250 250 248 247 244 242 241 243 243 243 244 245 246 248 249 250 251 249 246 246 244 241 241 239 234
233 235 239 243 246 247 247 247 247 248 249 251 253 254 253 253 252 253 255 256 255 255 256 256 255 255 254 253 252 252 252 253 253 254 255 255 254 253 251 249 247 245 243 241 241 242 242 242 244 245 245 247 248 251 251 244 238 237 234 231 231 229 228
233 233 236 241 245 248 251 251 252 253 253 252 253 253 253 253 252 252 253 253 252 252 253 254 255 255 255 254 253 252 251 251 251 252 253 254 253 251 251 250 249 248 247 245 244 242 240 240 241 242 242 243 244 246 246 239 235 234 233 233 235 237 239
236 237 239 242 245 249 252 254 257 258 257 256 254 252 252 252 252 252 252 252 251 252 252 252 252 253 252 253 252 252 252 251 250 250 251 250 249 249 248 248 248 249 250 249 247 244 241 239 238 238 239 239 240 242 242 238 235 236 237 238 241 244 247
242 244 244 246 248 250 252 254 257 258 258 257 255 253 252 252 252 252 252 252 252 253 253 253 252 251 250 250 250 251 251 250 249 249 249 248 247 246 246 246 246 247 249 248 246 244 243 241 241 241 240 238 239 241 243 242 239 239 240 241 243 246 249
244 245 246 247 249 252 253 255 256 257 258 258 256 253 252 252 253 254 253 253 254 254 254 255 255 253 252 250 248 248 249 248 247 247 247 246 247 247 247 248 247 246 246 246 245 244 243 243 244 243 241 239 240 242 244 245 245 245 245 245 246 248 251
245 246 248 249 251 253 254 256 257 258 259 258 257 255 254 253 254 255 255 255 256 255 255 257 256 254 252 250 248 248 248 247 247 245 244 244 247 248 248 248 248 246 245 245 246 246 245 244 243 242 241 241 244 245 245 246 246 247 247 248 250 251 253
247 248 250 251 253 254 254 255 257 258 259 259 258 256 256 255 254 254 254 255 256 256 256 256 255 253 251 249 249 249 247 246 245 244 243 243 245 246 245 246 247 246 244 243 245 247 248 245 243 242 242 242 245 246 246 245 245 246 248 250 251 253 254
250 250 251 252 253 253 253 254 256 257 259 260 259 257 256 256 256 256 256 256 255 255 255 255 253 252 250 247 247 248 247 246 245 244 243 243 243 243 243 244 246 247 245 244 244 246 247 245 243 243 243 243 243 245 245 245 245 246 248 251 253 255 256
253 253 253 253 253 252 253 253 254 255 257 258 259 258 256 256 256 256 257 257 255 254 254 253 253 253 251 247 246 247 247 246 245 244 243 244 244 244 243 242 243 244 244 244 243 243 243 243 243 243 244 244 245 246 246 246 247 248 250 253 255 256 258